Simultaneous Nadir Overpasses (SNOs) Predictions

Prediction of SNOs between FY3D and AQUA Satellite Orbit:

Table of predicted SNOs for the next 14.0 days since TLE Epoch: 9/3/2022
Index Date (FY3D) Time (FY3D) Lat,Lon (FY3D) SZA (FY3D ) Date (AQUA) Time (AQUA) Lat,Lon (AQUA) SZA (AQUA ) Distance(km) Time Diff (sec)
1 09/03/2022 20:53:58 -76.63, 34.15 110.45 09/03/2022 20:54:01 -76.62, 34.25 110.46 2.78 3
2 09/03/2022 21:43:42 73.71,-149.69 66.36 09/03/2022 21:42:28 73.63,-149.97 66.29 12.48 74
3 09/06/2022 11:30:20 -76.83, 174.28 109.25 09/06/2022 11:31:02 -76.84, 174.23 109.25 1.54 42
4 09/06/2022 12:20:46 75.95, -15.12 69.75 09/06/2022 12:20:10 75.96, -15.18 69.76 1.60 36
5 09/09/2022 02:57:15 76.49, 123.90 71.33 09/09/2022 02:57:17 76.49, 123.87 71.33 1.03 2
6 09/09/2022 03:45:39 -69.48, -52.59 115.91 09/09/2022 03:44:25 -69.31, -53.47 116.11 39.10 74
7 09/11/2022 17:33:41 76.88, -96.69 72.76 09/11/2022 17:34:21 76.89, -96.74 72.76 1.58 40
8 09/11/2022 18:24:09 -76.09, 73.62 108.14 09/11/2022 18:23:30 -76.09, 73.61 108.14 0.06 39
9 09/14/2022 08:12:52 81.21, -8.33 82.81 09/14/2022 08:14:05 81.79, -8.35 83.02 64.63 73
10 09/14/2022 09:00:33 -76.44,-146.71 106.76 09/14/2022 09:00:32 -76.45,-146.78 106.74 2.19 1
11 09/14/2022 09:46:30 61.35, 45.19 58.69 09/14/2022 09:45:18 61.13, 43.63 58.25 87.21 72
12 09/16/2022 23:37:02 -76.96, -7.82 105.16 09/16/2022 23:37:38 -76.96, -7.80 105.17 0.67 36



Historial Predications of SNOs between FY3D and AQUA
